Flag for U.S.A. Weather past 2 weeks in Tucson, Arizona, U.S.A.

Now
67 °F

Passing clouds.


Feels Like: 67 °F
Forecast: 62 / 84 °F
Wind: 5 mph from Northeast

Location: Davis-Monthan Air Force Base

Current Time: Oct 19, 2014 at 9:59:40 PM

Latest Report: Oct 19, 2014 at 7:58 PM


Visibility: 10 mi

Pressure: 29.85 "Hg

Humidity: 64%

Dew point: 54 °F

Location of TucsonLocation

Historic Weather in Tucson — Graph

°F

Tucson temperature yesterday

Maximum temperature yesterday: 88 °F (at 2:58 PM)
Minimum temperature yesterday: 58 °F (at 6:58 AM)
Average temperature yesterday: 73 °F

Past Weeks' High & Low Weather Summary

 TemperatureHumidityPressure
High91 °F (Oct 5, 3:58 PM)100% (Oct 8, 1:58 PM)30.03 "Hg (Oct 8, 1:58 PM)
Low58 °F (Oct 18, 6:58 AM)10% (Oct 14, 2:58 PM)29.70 "Hg (Oct 18, 3:58 PM)
Average73 °F49%29.87 "Hg
* Reported Oct 4 7:58 PM — Oct 19 7:58 PM, Tucson, Weather by CustomWeather, © 2014

Note: Actual official high and low records may vary slightly from our data, if they occured in-between our weather recording intervals... More about our weather records

Advertising

Tucson weather history for previous 24 hours

 ConditionsComfort  
Time TempWeatherWind HumidityBarometerVisibility
7:58 PM
Oct 19
67 °FPassing clouds.5 mph64%29.85 "Hg10 mi
6:58 PM68 °FOvercast.6 mph54%29.84 "Hg10 mi
5:58 PM69 °FPartly cloudy.16 mph51%29.81 "Hg10 mi
4:58 PM67 °FPassing clouds.12 mph58%29.79 "Hg10 mi
3:58 PM70 °FSunny.16 mph49%29.78 "Hg10 mi
2:58 PM72 °FThunderstorms. Sunny.26 mph51%29.73 "Hg3 mi
1:58 PM83 °FSunny.3 mph28%29.70 "Hg10 mi
12:58 PM84 °FSunny.12 mph27%29.72 "Hg10 mi
11:58 AM83 °FSunny.6 mph29%29.75 "Hg10 mi
10:58 AM81 °FSunny.3 mph31%29.78 "Hg10 mi
9:58 AM77 °FSunny.5 mph37%29.80 "Hg10 mi
8:58 AM70 °FSunny.7 mph50%29.80 "Hg10 mi
7:58 AM65 °FSunny.8 mph57%29.80 "Hg10 mi
5:58 AM62 °FClear.6 mph65%29.78 "Hg10 mi
4:58 AM64 °FClear.7 mph60%29.75 "Hg10 mi
3:58 AM65 °FClear.6 mph58%29.75 "Hg10 mi
2:58 AM66 °FPassing clouds.6 mph57%29.74 "Hg10 mi
1:58 AM68 °FClear.6 mph52%29.74 "Hg10 mi
12:58 AM68 °FClear.8 mph52%29.74 "Hg10 mi
11:58 PM
Oct 18
68 °FPassing clouds.5 mph52%29.74 "Hg10 mi
10:58 PM70 °FClear.8 mph49%29.75 "Hg10 mi
9:58 PM71 °FClear.3 mph49%29.75 "Hg10 mi
Weather by CustomWeather, © 2014

See weather overviewHow to use our weather pages